Current weather by "City, St" or "zip code"  
 

Current Conditions: Lawrenceville-Vincennes International Airport, IL

Partly Cloudy


43.0 F

Last Updated on Apr 23 2021, 4:53 am CDT
Humidity: 76%
Wind Speed: N 0.0 mph
Barometer 30.14 in
Dewpoint: 36.0 F
Visibility: 10.00 mi
Precip: --
Heat Index: NA
Wind Chill: NA
Current conditions at:

Lawrenceville-Vincennes International Airport, IL (KLWV)

Lat: 38.76046 Lon: 87.59903

Local Radar Image active severe weather and emergency alerts image image weather storm and storm spotter reports image weather observation monitoring service image
Local
Radar
Active
Alerts
Storm Reports Obs
Monitoring

Sign-up For Email & Text Message Weather Alert Notification Services



Advertise Here

Observation History for Lawrenceville-Vincennes International Airport, IL


Time Wind
(mph)
Vis
(mi)
Weather Precip (in) Temperature (F) Relative
Humidity
Wind
Chill
(F)
Heat
Index
(F)
Pressure
Air Dwpt altimeter
(in)
sea level
(mb)
Rmks
4:53 am CDT N 0.0 10.00 Partly Cloudy -- 43.0 36.0 76% NA NA 30.14 1020.6
3:53 am CDT N 0.0 10.00 Partly Cloudy -- 43.0 35.1 74% NA NA 30.14 1020.6
2:53 am CDT N 0.0 10.00 Fair -- 42.0 34.0 73% NA NA 30.14 1020.6
1:53 am CDT E 3.5 10.00 Fair -- 40.0 35.1 83% NA NA 30.15 1020.9
12:53 am CDT N 0.0 10.00 Fair -- 41.0 35.1 79% NA NA 30.16 1021.3
11:53 pm CDT N 0.0 10.00 Fair -- 41.0 34.0 76% NA NA 30.16 1021.5
10:53 pm CDT NE 3.5 10.00 Fair -- 42.0 33.1 71% NA NA 30.16 1021.4
9:53 pm CDT E 4.6 10.00 Fair -- 44.0 32.0 63% 41 NA 30.16 1021.3
8:53 pm CDT N 0.0 10.00 Fair -- 47.0 30.0 52% NA NA 30.16 1021.3
7:53 pm CDT NW 3.5 10.00 Fair -- 52.0 24.1 34% NA NA 30.15 1021.0
6:53 pm CDT W 4.6 10.00 Fair -- 53.0 25.0 34% 52 NA 30.15 1020.9
5:53 pm CDT W 8.1 10.00 Fair -- 55.0 24.1 30% 53 NA 30.15 1021.2
4:53 pm CDT W 12.7 G 16.1 10.00 Fair -- 56.0 25.0 30% 53 NA 30.16 1021.3
3:53 pm CDT 10.00 Fair -- 56.0 26.1 32% NA NA 30.16 1021.5
2:53 pm CDT W 11.5 10.00 Fair -- 55.0 25.0 31% 52 NA 30.18 1022.2
1:53 pm CDT W 11.5 G 23.0 10.00 Fair -- 53.0 23.0 31% 49 NA 30.21 1023.1
12:53 pm CDT NW 15.0 G 21.9 10.00 Fair -- 53.0 25.0 34% 48 NA 30.22 1023.4
11:53 am CDT 6.9 10.00 Fair -- 51.0 21.9 32% 48 NA 30.23 1023.9
10:53 am CDT NW 11.5 G 18.4 10.00 Fair -- 51.0 23.0 33% 47 NA 30.25 1024.3
9:53 am CDT NW 12.7 G 18.4 10.00 Fair -- 50.0 25.0 38% 45 NA 30.24 1024.1
8:53 am CDT NW 9.2 10.00 Fair -- 46.0 30.9 56% 41 NA 30.23 1023.8
7:53 am CDT NW 9.2 10.00 Fair -- 43.0 34.0 71% 38 NA 30.21 1023.2
6:53 am CDT NW 8.1 10.00 Fair -- 38.0 34.0 86% 32 NA 30.19 1022.5
5:53 am CDT W 4.6 10.00 Partly Cloudy -- 37.0 33.1 86% 33 NA 30.17 1021.7

Regional Weather Observation


Lawrenceville-Vincennes International Airport, IL (KLWV)

Partly Cloudy
43.0 F

Mount Carmel, Mount Carmel Municipal Airport, IL (KAJG)

Overcast
43.0 F

Olney-Noble Airport, IL (KOLY)

Overcast
43.0 F

Daviess County Airport, IN (KDCY)

Overcast
41.0 F

Terre Haute Regional Airport, IN (KHUF)

Fair
37.0 F

Effingham, Effingham County Memorial Airport, IL (K1H2)

Overcast
41.0 F

Advertise Here


Advertise Here